Wind_Speed
15 15 16 17 18 20 21 23 25 25 26 26 26 26 25 24 24 24 24 24 25 26 27 27 27 27 28 29 30 31 32 33 33 34 34 35 37 38 39 40 41 41 42 42
13 13 14 15 16 19 20 22 24 25 25 24 24 23 22 21 20 20 21 22 24 25 25 26 25 25 26 27 27 28 28 28 29 31 32 33 34 36 37 39 40 40 41 42
11 11 12 13 15 17 19 21 22 22 21 22 21 20 18 17 17 18 20 21 22 23 23 24 24 24 24 24 24 24 25 25 25 27 28 30 31 33 34 36 38 39 39 41
8 10 12 13 15 17 18 19 19 19 19 19 18 16 14 15 17 18 19 21 22 22 22 22 22 22 22 22 21 20 20 20 21 22 24 26 28 30 32 33 35 36 37 38
7 10 12 14 15 15 16 16 17 17 16 14 13 13 14 15 17 19 21 22 23 22 22 21 21 21 21 21 20 18 17 17 18 19 20 22 24 25 27 29 31 33 34 36
6 9 11 12 13 14 14 13 14 13 12 11 11 13 14 17 18 19 21 22 23 22 21 21 22 22 21 20 19 17 16 15 15 15 16 17 19 21 23 25 27 29 31 34
5 7 8 10 11 11 11 11 11 11 10 10 11 12 15 16 18 19 20 21 21 21 21 21 22 22 22 21 20 18 17 16 15 14 13 13 14 15 17 20 22 25 28 30
1 3 5 7 8 9 10 10 11 11 11 11 12 14 15 16 17 18 18 19 20 20 20 21 22 22 22 21 21 20 19 17 16 15 13 12 12 11 12 14 17 20 22 26
2 2 4 6 8 9 10 11 11 12 12 13 13 13 15 15 17 17 18 19 20 20 21 21 23 23 22 22 21 21 20 19 18 17 15 13 11 11 10 9 10 13 16 20
4 5 7 7 9 10 11 12 12 13 13 13 13 14 15 16 17 17 19 20 20 21 21 21 22 23 23 22 22 22 21 20 20 18 17 15 13 12 11 10 9 9 11 14
7 7 7 8 9 10 11 12 13 13 13 13 13 14 15 16 17 17 18 19 20 20 21 21 22 23 23 22 22 22 22 21 21 20 18 17 15 14 13 12 9 8 7 9
8 8 8 8 9 10 11 12 13 13 13 13 13 14 15 16 17 17 18 19 19 20 21 21 21 22 23 23 23 23 22 22 21 21 19 18 17 16 15 13 11 9 7 7
9 9 8 8 10 11 11 12 13 13 13 13 13 14 15 16 17 18 18 19 19 20 20 21 22 22 23 23 23 23 23 22 22 21 21 20 19 17 16 15 12 11 9 8
9 8 9 9 10 11 11 11 12 13 13 13 13 13 14 15 16 18 18 19 19 19 20 20 21 22 23 23 23 23 23 23 22 22 22 21 20 19 18 17 15 13 11 10
7 7 7 7 8 9 10 11 12 12 13 13 13 13 14 15 16 18 19 19 19 19 19 20 21 21 22 23 23 23 23 23 23 23 22 22 21 20 19 18 16 15 13 11
6 6 6 6 6 7 9 10 11 12 12 13 13 14 14 14 15 17 18 19 19 19 19 19 20 21 22 23 23 23 24 24 24 24 23 23 22 22 21 20 18 16 14 12
5 5 5 5 6 7 7 8 9 10 12 12 13 14 14 15 15 17 17 18 19 20 19 19 20 21 21 22 23 23 24 24 24 24 24 24 24 24 23 21 19 18 16 14
3 3 3 3 4 4 6 7 8 9 10 11 12 12 13 14 16 17 17 18 18 19 19 20 20 20 21 22 22 23 23 24 25 25 25 25 25 25 24 23 21 20 18 15
1 0 0 1 2 3 5 6 7 8 9 10 11 11 12 14 15 16 17 18 18 18 19 19 20 20 21 22 22 23 23 24 25 25 26 26 26 26 26 24 23 22 20 18
4 4 3 3 3 4 5 6 7 8 9 10 11 11 12 13 14 15 16 17 17 17 18 18 19 20 20 21 22 23 23 24 24 25 26 26 26 26 26 25 24 23 22 20
7 6 6 6 6 6 6 7 7 7 8 10 10 11 12 13 14 15 16 16 17 17 17 18 18 19 19 20 21 22 23 23 24 25 25 26 26 25 25 25 25 24 23 22
9 9 9 9 9 9 9 9 9 10 10 11 11 12 12 13 14 15 16 16 16 17 17 18 18 18 19 19 20 21 21 22 23 24 25 25 25 25 25 25 25 25 24 23
13 13 12 12 11 11 11 12 12 12 12 13 13 13 14 14 15 15 15 16 16 17 17 17 18 18 18 18 19 20 20 21 21 23 24 24 24 24 24 25 25 25 24 23
16 16 16 15 14 13 14 14 15 15 15 15 16 16 16 16 16 16 16 16 16 17 17 17 17 17 17 17 18 18 19 19 20 21 22 23 23 23 23 24 24 24 24 23
19 18 17 18 17 16 16 17 17 18 18 18 18 18 18 18 18 17 17 17 17 17 17 17 17 17 17 17 17 17 18 18 18 19 19 20 21 22 22 22 23 23 23 22
21 19 18 19 19 19 19 20 20 20 21 21 21 21 21 20 20 19 19 19 19 19 18 18 17 17 17 17 16 16 16 17 17 17 17 18 19 19 20 20 21 21 22 21
Wind_Direction
257 269 281 289 297 303 308 310 312 313 312 311 312 315 318 318 317 315 314 313 312 311 309 305 301 297 294 289 286 282 279 275 271 269 267 265 263 260 258 257 255 253 251 251
262 274 284 294 302 305 308 308 310 310 311 312 314 318 320 320 320 320 319 317 317 317 317 316 313 309 304 298 293 288 284 278 272 270 270 268 264 261 259 257 255 253 251 250
268 279 287 295 301 304 306 308 310 312 313 314 317 320 323 326 329 330 330 330 328 328 327 325 323 319 315 310 304 295 289 283 278 275 272 269 266 264 261 258 255 253 251 248
271 282 293 300 305 308 310 312 315 317 319 319 322 327 337 343 347 348 348 346 343 340 337 335 333 330 327 323 319 310 300 292 286 281 277 273 270 265 262 259 256 252 249 246
275 291 300 306 311 315 318 320 323 326 328 328 333 345 357 358 359 358 356 354 353 352 350 348 346 344 341 337 332 325 316 306 298 291 286 280 275 269 264 260 255 250 248 246
283 296 303 312 321 326 330 332 335 337 337 341 351 359 7 5 3 2 0 359 359 359 359 359 358 356 354 351 348 343 337 328 319 310 300 292 284 277 270 263 255 250 248 245
301 304 313 326 333 340 347 351 351 351 356 5 11 14 11 8 6 5 5 5 5 6 6 5 5 5 4 3 360 355 351 346 340 332 322 310 300 288 276 267 258 253 249 245
307 300 322 339 353 4 10 12 11 13 16 20 22 20 17 15 13 12 11 10 11 11 10 10 11 10 10 10 9 7 4 0 356 351 343 333 324 313 295 280 265 257 251 246
115 42 23 22 26 26 26 27 27 29 28 30 29 27 27 24 21 19 18 17 16 16 16 16 16 15 15 16 16 16 16 14 10 5 0 354 344 336 329 310 283 265 255 248
83 61 47 42 39 39 39 39 39 38 35 34 36 35 32 29 25 23 22 20 19 17 17 17 17 17 17 18 18 19 19 18 17 15 13 8 2 358 351 338 322 288 265 251
84 74 63 55 53 55 53 50 47 44 40 39 38 36 30 27 24 23 22 20 18 17 16 16 16 16 17 17 17 17 18 18 16 16 16 14 10 8 5 358 346 327 293 266
94 86 73 67 66 65 59 54 48 44 42 40 37 34 29 27 26 25 23 20 19 18 18 18 17 18 19 19 19 18 17 18 18 18 16 16 14 11 7 2 355 346 322 283
100 93 85 73 67 63 58 53 49 46 43 40 36 34 31 30 29 27 24 22 20 19 18 19 19 20 20 20 20 20 20 20 19 18 18 16 15 12 9 6 360 352 340 321
103 94 82 73 68 65 60 56 52 47 44 40 37 35 32 32 30 26 23 21 20 18 19 20 20 20 20 20 21 21 21 20 19 19 18 16 14 11 7 4 1 355 346 334
103 94 84 73 67 64 61 57 51 46 42 40 37 34 31 29 26 23 22 21 20 19 20 21 20 20 20 20 20 21 21 21 19 18 17 15 13 10 7 4 1 355 347 336
98 92 82 69 58 52 53 52 49 46 41 39 37 34 28 24 21 20 21 21 20 19 20 20 20 20 20 20 20 20 20 19 18 17 16 14 12 10 7 5 3 359 353 343
96 85 74 61 49 43 42 43 43 42 39 35 32 29 26 22 20 20 19 19 19 20 20 20 19 19 19 19 18 18 18 18 17 16 15 15 13 11 9 6 4 2 359 354
96 81 71 61 46 34 35 34 35 35 32 28 25 22 20 18 17 18 18 18 17 17 18 20 20 19 17 17 16 16 16 16 16 15 15 15 14 12 11 10 9 7 5 2
226 220 37 25 12 9 14 15 16 18 20 18 16 14 12 12 12 13 14 13 12 13 15 17 18 17 17 16 15 15 16 15 15 15 15 15 15 15 15 15 15 14 13 11
253 259 267 285 302 316 335 345 352 358 1 4 5 4 1 1 3 5 6 7 7 7 9 12 14 14 14 14 14 14 15 15 15 15 16 16 16 17 18 19 19 18 18 19
259 262 267 274 282 292 300 309 319 327 337 340 345 348 350 351 353 354 356 358 359 1 3 6 8 9 10 10 11 12 14 15 15 16 16 17 18 19 20 21 22 22 22 23
261 265 268 273 278 283 290 296 303 308 314 319 323 328 332 336 340 343 345 348 350 353 357 359 1 2 4 5 7 9 10 12 13 15 16 18 19 20 21 23 23 24 25 26
259 262 265 268 276 284 289 293 297 301 305 307 310 315 319 322 325 329 333 336 340 344 348 351 353 354 356 358 1 3 6 8 11 13 15 17 19 20 22 23 24 25 27 28
261 264 267 271 275 281 286 290 293 297 300 302 304 306 308 311 314 317 319 324 328 333 337 341 344 347 349 350 353 356 359 2 5 9 12 14 17 19 21 23 25 27 28 29
262 265 271 276 281 284 285 288 291 293 294 295 298 300 301 303 305 307 309 312 316 320 324 328 331 335 338 341 344 348 351 354 357 1 5 10 13 16 19 22 25 28 30 31
271 273 275 277 281 282 283 284 286 288 289 290 291 293 295 297 298 300 301 303 305 307 311 315 318 321 324 328 332 336 341 345 349 353 357 2 6 11 15 19 23 27 30 32
Height
5911 5912 5910 5909 5907 5905 5902 5899 5896 5893 5890 5887 5883 5880 5877 5873 5869 5865 5861 5856 5852 5848 5844 5839 5835 5832 5828 5825 5822 5820 5818 5817 5816 5816 5816 5816 5817 5819 5821 5823 5826 5828 5832 5835
5909 5909 5907 5906 5904 5901 5898 5896 5893 5889 5886 5882 5879 5877 5873 5870 5865 5861 5857 5852 5848 5843 5838 5833 5829 5825 5821 5817 5814 5811 5809 5808 5807 5806 5806 5806 5807 5808 5809 5811 5814 5817 5820 5823
5906 5906 5904 5903 5901 5898 5895 5892 5889 5886 5883 5879 5876 5873 5870 5866 5862 5857 5853 5848 5843 5838 5834 5829 5824 5819 5815 5811 5807 5804 5802 5800 5799 5798 5797 5797 5797 5797 5798 5800 5802 5805 5808 5811
5903 5902 5901 5899 5897 5895 5892 5889 5885 5882 5879 5876 5873 5870 5867 5862 5858 5854 5850 5845 5840 5835 5830 5825 5820 5816 5811 5806 5802 5798 5795 5793 5792 5790 5789 5788 5788 5788 5788 5789 5790 5793 5796 5799
5900 5899 5898 5896 5894 5892 5889 5885 5882 5879 5876 5874 5871 5868 5865 5860 5856 5852 5848 5843 5838 5833 5828 5823 5818 5813 5808 5803 5798 5794 5791 5788 5786 5784 5782 5781 5779 5779 5779 5779 5780 5782 5785 5788
5898 5897 5896 5893 5891 5889 5886 5883 5880 5877 5875 5872 5869 5866 5863 5858 5855 5851 5846 5842 5837 5832 5827 5822 5817 5811 5806 5801 5796 5792 5788 5785 5782 5779 5777 5774 5773 5772 5771 5771 5771 5773 5775 5777
5896 5895 5893 5891 5889 5887 5884 5882 5879 5876 5874 5871 5868 5865 5862 5858 5854 5850 5846 5842 5837 5832 5827 5822 5817 5811 5806 5801 5796 5791 5786 5783 5779 5776 5773 5770 5768 5766 5765 5764 5764 5765 5766 5769
5895 5894 5893 5890 5888 5885 5883 5881 5879 5876 5873 5870 5867 5864 5862 5858 5854 5850 5846 5842 5837 5832 5828 5822 5817 5812 5806 5801 5796 5791 5786 5782 5778 5774 5771 5768 5765 5762 5760 5759 5758 5758 5759 5761
5894 5893 5891 5889 5887 5884 5882 5880 5878 5875 5872 5870 5867 5865 5862 5858 5855 5851 5847 5842 5838 5833 5829 5824 5818 5813 5807 5802 5797 5792 5787 5782 5778 5774 5770 5766 5763 5760 5758 5755 5754 5753 5753 5754
5892 5892 5890 5889 5887 5885 5883 5880 5878 5875 5873 5870 5868 5865 5863 5859 5855 5851 5847 5843 5839 5834 5830 5825 5820 5814 5809 5803 5798 5794 5789 5784 5779 5775 5770 5767 5763 5760 5756 5754 5751 5749 5749 5748
5892 5891 5891 5889 5887 5885 5884 5881 5878 5876 5873 5871 5868 5868 5863 5860 5856 5852 5848 5844 5840 5835 5831 5826 5821 5816 5810 5805 5800 5795 5790 5785 5780 5776 5771 5767 5763 5760 5757 5753 5750 5748 5746 5745
5892 5892 5891 5890 5888 5886 5884 5881 5879 5877 5875 5871 5869 5870 5864 5860 5856 5852 5849 5845 5841 5837 5832 5827 5823 5817 5812 5807 5802 5797 5792 5787 5782 5778 5773 5769 5764 5761 5757 5753 5750 5747 5745 5744
5893 5893 5892 5891 5891 5887 5884 5882 5880 5878 5875 5872 5870 5871 5864 5861 5857 5854 5850 5846 5842 5838 5834 5829 5824 5819 5814 5809 5804 5799 5794 5789 5784 5779 5775 5770 5766 5761 5757 5754 5750 5747 5744 5742
5893 5893 5893 5892 5890 5887 5885 5883 5881 5879 5876 5873 5871 5869 5865 5862 5859 5855 5851 5847 5843 5839 5835 5830 5825 5821 5816 5811 5806 5801 5796 5791 5786 5781 5776 5771 5767 5762 5758 5754 5750 5747 5744 5741
5894 5894 5893 5892 5890 5888 5886 5884 5882 5879 5877 5875 5872 5869 5866 5863 5860 5856 5852 5848 5845 5841 5836 5832 5827 5823 5818 5813 5808 5803 5798 5793 5788 5783 5778 5773 5768 5763 5758 5754 5750 5746 5742 5739
5894 5894 5893 5892 5891 5889 5887 5885 5882 5880 5878 5876 5873 5870 5867 5864 5861 5857 5854 5850 5846 5842 5838 5833 5829 5824 5820 5815 5810 5805 5800 5795 5790 5785 5779 5774 5769 5764 5758 5753 5749 5745 5741 5738
5894 5894 5893 5893 5891 5890 5888 5886 5884 5881 5879 5877 5874 5872 5868 5865 5862 5858 5855 5851 5847 5843 5839 5835 5830 5826 5821 5817 5812 5807 5802 5797 5792 5786 5781 5775 5770 5764 5759 5753 5748 5744 5739 5736
5894 5894 5893 5893 5892 5891 5891 5887 5884 5882 5880 5877 5875 5872 5869 5866 5863 5859 5856 5852 5848 5845 5840 5836 5832 5827 5823 5818 5814 5809 5804 5798 5793 5788 5782 5777 5771 5765 5759 5753 5748 5743 5738 5734
5894 5894 5893 5892 5891 5890 5889 5887 5884 5882 5880 5878 5875 5872 5870 5866 5863 5860 5856 5853 5849 5846 5842 5837 5833 5829 5825 5820 5815 5810 5805 5800 5795 5790 5784 5778 5772 5766 5760 5754 5749 5744 5739 5734
5893 5892 5892 5891 5890 5889 5889 5886 5883 5883 5880 5878 5875 5872 5870 5867 5864 5861 5857 5854 5850 5846 5842 5838 5834 5830 5826 5822 5817 5812 5807 5802 5797 5792 5786 5780 5775 5769 5763 5757 5751 5746 5741 5736
5890 5890 5889 5888 5887 5886 5886 5884 5883 5882 5880 5877 5874 5872 5869 5866 5864 5861 5857 5854 5851 5847 5843 5839 5835 5831 5827 5823 5818 5814 5809 5804 5799 5794 5788 5783 5777 5771 5766 5760 5754 5749 5744 5738
5887 5886 5886 5885 5884 5886 5883 5881 5881 5879 5877 5875 5873 5871 5868 5866 5863 5860 5857 5854 5850 5847 5843 5839 5835 5832 5828 5824 5820 5815 5811 5806 5801 5796 5791 5785 5780 5774 5769 5763 5758 5752 5747 5742
5883 5883 5882 5882 5883 5881 5879 5878 5877 5876 5874 5872 5870 5869 5866 5864 5861 5859 5856 5853 5850 5846 5843 5839 5836 5832 5828 5824 5820 5816 5812 5808 5803 5798 5793 5788 5783 5778 5772 5767 5762 5756 5751 5746
5878 5877 5877 5877 5877 5877 5875 5874 5873 5872 5870 5868 5867 5865 5863 5861 5859 5856 5854 5851 5848 5845 5842 5838 5835 5832 5828 5825 5821 5817 5813 5809 5805 5800 5795 5791 5786 5781 5775 5770 5765 5760 5755 5750
5873 5873 5873 5873 5873 5872 5871 5869 5868 5867 5865 5864 5862 5860 5859 5857 5855 5853 5850 5848 5845 5842 5840 5837 5834 5831 5828 5824 5821 5817 5814 5810 5806 5802 5797 5793 5788 5783 5778 5774 5769 5764 5759 5754
5867 5868 5869 5868 5867 5867 5866 5864 5863 5862 5860 5858 5857 5855 5853 5852 5850 5848 5846 5844 5842 5839 5837 5834 5831 5829 5826 5823 5820 5816 5813 5810 5806 5802 5798 5794 5790 5786 5781 5777 5772 5767 5763 5758